Weather Roundup
Issued by NWS Springfield, MO

Home | Current Version | Previous Version | Text Only | Print | Product List | Glossary On
Versions: 1 2 3 4 5 6 7 8 9 10 11 12 13 14 15 16 17 18 19 20 21 22 23 24 25 26 27 28 29 30 31 32 33 34 35 36 37 38 39 40 41 42 43 44 45 46 47 48 49 50
663
NZUS99 KSGF 190257
HRRSGF

HOURLY WEATHER
NATIONAL WEATHER SERVICE SPRINGFIELD MO
1000 PM CDT WED OCT 18 2017

......SGF CWA......

CITY           SKY/WX    TMP DP  RH WIND       PRES   REMARKS
SPRINGFIELD    CLEAR     57  43  59 S8        30.11R
JOPLIN         CLEAR     60  47  61 S9        30.09R
WEST PLAINS    CLEAR     60  48  64 S6        30.16R
ROLLA          PTCLDY    61  47  59 S13       30.11R

......SURROUNDING SGF CWA......

CITY           SKY/WX    TMP DP  RH WIND       PRES   REMARKS
CHANUTE        CLOUDY    62  49  62 S9        30.06S
PARSONS        CLEAR     59  48  67 CALM      30.08R
COFFEYVILLE    CLEAR     55  49  80 S7        30.07S
EMPORIA        CLEAR     56  48  74 S7        30.04R
HARRISON AR    CLEAR     62  48  60 SE13      30.13F

......KANSAS AND MISSOURI......

CITY           SKY/WX    TMP DP  RH WIND       PRES   REMARKS
KANSAS CTY INT CLEAR     54  49  83 S8        30.04R
SEDALIA        CLEAR     62  51  67 S6        30.08R
ST JOSEPH      CLEAR     50  49  96 CALM      30.03R
ST LOUIS       PTCLDY    64  48  56 S8        30.10S
WICHITA        PTCLDY    59  50  72 S8        30.04R
TOPEKA         CLEAR     56  53  90 CALM      30.03R
OLATHE         CLEAR     57  50  77 S5        30.06R

......TENNESSEE......

CITY           SKY/WX    TMP DP  RH WIND       PRES   REMARKS
MEMPHIS        NOT AVBL
NASHVILLE      CLEAR     54  46  74 S5        30.24S

......ARKANSAS.......

CITY           SKY/WX    TMP DP  RH WIND       PRES   REMARKS
FAYETTEVILLE   CLEAR     48  48 100 CALM      30.13R
FT SMITH       CLEAR     62  54  74 E3        30.12R
LITTLE ROCK    PTCLDY    58  52  80 S7        30.17S

......OKLAHOMA.......

CITY           SKY/WX    TMP DP  RH WIND       PRES   REMARKS
TULSA          MOCLDY    67  47  48 S9        30.07R
PONCA CITY     CLEAR     69  49  48 S10G20    30.05S
MCALESTER      CLOUDY    58  50  75 CALM      30.11R
OKLAHOMA CITY  CLOUDY    59  47  64 S7        30.07R

......IOWA............

CITY           SKY/WX    TMP DP  RH WIND       PRES   REMARKS
DES MOINES     NOT AVBL
QUAD CITIES    CLEAR     58  42  55 CALM      30.04R

......ILLINOIS........

CITY           SKY/WX    TMP DP  RH WIND       PRES   REMARKS
QUINCY         NOT AVBL
CHICAGO        PTCLDY    64  42  44 SW13      30.04R




USA.gov is the U.S. government's official web portal to all federal, state and local government web resources and services.